Regional Weather Roundup
Issued by NWS Wakefield, VA

Home | Current Version | Previous Version | Text Only | Print | Product List | Glossary On
Versions: 1 2 3 4 5 6 7 8 9 10 11 12 13 14 15 16 17 18 19 20 21 22 23 24 25 26 27 28 29 30 31 32 33 34 35 36 37 38 39 40 41 42 43 44 45 46 47 48 49 50
768
ASUS41 KAKQ 091515
RWRAKQ

REGIONAL WEATHER ROUNDUP
NATIONAL WEATHER SERVICE WAKEFIELD VA
1000 AM EST FRI DEC 09 2016

Note: "fair" indicates few or no clouds below 12,000 feet with no
significant weather and/or obstructions to visibility. * = Denotes
station may not report precipitation (e.g., rain,snow,etc.),
thunder or fog.

VAZ042-051-052>054-056-091600-
NORTHERN VIRGINIA

CITY           SKY/WX    TMP DP  RH WIND       PRES   REMARKS
WASH NATIONAL  SUNNY     35  16  45 W16G22    30.34R
DULLES         SUNNY     33  15  47 NW20G29   30.33R WCI  21
FORT BELVOIR   SUNNY     35  14  42 NW20      30.33R WCI  24
QUANTICO       SUNNY     35  16  45 N13G24    30.37R
FREDERICKSBRG* SUNNY     35  16  46 NW12      30.36R
STAFFORD*      SUNNY     33  15  46 W9        30.40R
WARRENTON      SUNNY     36   9  32 NW12      30.34R
CULPEPER*      SUNNY     35  15  42 NW13      30.36R
MANASSAS*      SUNNY    N/A N/A N/A N10G17    30.36R
LEESBURG*      SUNNY     34  21  60 NW20G29   30.34R WCI  22
WINCHESTER     PTSUNNY   32  16  51 NW12G21   30.33R WCI  23
FRONT ROYAL*   FAIR      32  14  47 W6        30.33R
LURAY*         FAIR      32  18  55 W7        30.34R
$$

VAZ048-049-060>072-079>083-091600-
CENTRAL AND SOUTH CENTRAL VIRGINIA

CITY           SKY/WX    TMP DP  RH WIND       PRES   REMARKS
RICHMOND       SUNNY     36  14  40 W12       30.36R
CHESTERFIELD*  FAIR      36   7  30 NW15G21   30.38R
PETERSBURG*    SUNNY     34  11  38 NW14      30.39R WCI  24
HANOVER        SUNNY     34  13  41 W12       30.38R
TAPPAHANNOCK*  SUNNY     35   9  34 W12G21    30.35R
QUINTON*       FAIR      34  15  46 NW8G18    30.36R
CHARLOTTSVILLE SUNNY     34  12  40 NW7       30.35R
GORDONSVILLE*  FAIR      34  13  42 W5        30.35R
ORANGE*          N/A     36  14  41 SW9       30.36R
LOUISA*        SUNNY     37  18  44 W10       30.35R
BUMPASS*       FAIR      33  13  44 W6        30.36R
FARMVILLE*     SUNNY     35  16  45 NW5       30.39R
CREWE*         FAIR      33  13  43 NW12G18   30.38R WCI  24
FORT PICKETT*  FAIR      34   7  32 NW12G20   30.38R
CHASE CITY*    FAIR      32  11  41 N10       30.40R WCI  24
CLARKSVILLE*   FAIR      32  16  51 NW7       30.40R
SOUTH HILL*    SUNNY     33  17  51 N8        30.44R
LAWRENCEVILLE* FAIR      34  14  44 NW8G17    30.38R
EMPORIA*       SUNNY     34  18  51 W9        30.40R
$$

VAZ088>098-091600-
SOUTHEAST VIRGINIA

CITY           SKY/WX    TMP DP  RH WIND       PRES   REMARKS
NORFOLK        SUNNY     37  18  46 VRB7G18   30.34R
VIRGINIA BEACH MOSUNNY   37  19  48 NW22G28   30.33R
NORFOLK NAVAL  SUNNY     38  18  44 NW15      30.36R
WEST POINT*    SUNNY     35  15  42 NW8       30.37R
SALUDA*        FAIR      34  18  50 NW14G22   30.34R WCI  25
NEWPORT NEWS   SUNNY     36  16  44 NW14      30.35R
LANGLEY AFB    SUNNY     36  18  47 NW14      30.34R
FORT EUSTIS    SUNNY     37  17  43 NW14      30.33R
WILLIAMSBURG*  SUNNY     37  19  48 NW10G22   30.36R
HR EXEC AP*    FAIR      37  19  48 NW9       30.35R
FRANKLIN*      SUNNY     36  17  46 W10G16    30.37S
US460-WAKEFLD  SUNNY     36  16  44 VRB6      30.37R
$$

VAZ020-022-025-037-045-091600-
WEST CENTRAL AND SOUTHWEST VIRGINIA

CITY           SKY/WX    TMP DP  RH WIND       PRES   REMARKS
STAUNTON*      SUNNY     30  11  45 NW8       30.35S
WAYNESBORO*    FAIR      29   8  40 NW7       30.32R
HOT SPRINGS VA CLOUDY    18   9  68 W16G23    30.18R WCI   3
LYNCHBURG      SUNNY     31  10  41 NW6       30.39R
DANVILLE       SUNNY     33  13  43 N15G22    30.42R WCI  23
SOUTH BOSTON*  FAIR      32  11  40 NW10G17   30.42R WCI  24
MARTINSVILLE   SUNNY     31  11  44 N14G22    30.44R WCI  20
ROANOKE        MOSUNNY   29  10  45 W16G24    30.42R WCI  17
BLACKSBURG     CLOUDY    24  10  55 NW9       30.40R
DUBLIN*        FLURRIES  25  13  62 NW8G20    30.38R
MARION*        LGT SNOW  22  15  76 W6        30.39R
HILLSVILLE*    CLOUDY    21  13  70 NW16      30.30R WCI   7
RICHLANDS*     LGT SNOW  18  15  90 NW6       30.38R VSB 3/4
WISE*          LGT SNOW  19  12  73 NW7       30.41R
ABINGDON*      FLURRIES  24  13  63 N8        30.43R
$$

MDZ021>025-VAZ099-100-091600-
SOUTHERN MARYLAND AND THE DELMARVA PENINSULA

CITY           SKY/WX    TMP DP  RH WIND       PRES   REMARKS
PATUXENT RIVER MOSUNNY   34  17  50 W14G20    30.32R WCI  25
BAY BRIDGE APT   N/A     34  18  51 MISG      30.30R
LEONARDTOWN    SUNNY     34  16  47 W10G17    30.33R
DOVER          SUNNY     34  20  55 W14       30.25R WCI  25
GEORGETOWN     SUNNY     34  18  52 W14G20    30.28R WCI  25
EASTON         SUNNY     36  18  48 NW17G24   30.33R
CAMBRIDGE      SUNNY     32  18  55 NW15G23   30.30R WCI  22
SALISBURY      SUNNY     34  18  52 NW17G26   30.29R WCI  23
OCEAN CITY     SUNNY     34  19  54 NW13G24   30.28R WCI  25
WALLOPS ISLAND MOSUNNY   35  20  54 NW15G22   30.30R
ACCOMACK*      SUNNY     36  21  55 NW12G28   30.31R
$$

NCZ012>017-030>032-091600-
NORTH CENTRAL AND EASTERN NORTH CAROLINA

CITY           SKY/WX    TMP DP  RH WIND       PRES   REMARKS
ROANOKE RAPIDS FAIR      36  18  48 NW15      30.39R
RALEIGH        SUNNY     35  15  44 N9G17     30.41R
ELIZABETH CITY SUNNY     37  20  50 NW17      30.35R
AHOSKIE*       SUNNY     34  16  47 N7        30.38R
EDENTON*       SUNNY     38  21  51 N12       30.37R
CURRITUCK*     SUNNY     37  22  53 N10G17    30.35R
KILL DEVIL HLS SUNNY     38  25  58 NW8G16    30.32R
MANTEO         SUNNY     38  19  46 N12G23    30.34R
CAPE HATTERAS  SUNNY     41  23  48 VRB7G17   30.33R
TARBORO*       NOT AVBL
GOLDSBORO      SUNNY     38  17  41 NW8       30.37R
WASHINGTON     SUNNY     37  18  46 N14G20    30.38R
GREENVILLE     SUNNY     37  19  48 N10G17    30.39R
NEW BERN       SUNNY     39  19  44 NW13      30.39R
WILMINGTON     SUNNY     39  19  44 N16       30.39R
$$

VAZ048-091600-
ELSEWHERE

CITY           SKY/WX    TMP DP  RH WIND       PRES   REMARKS
HARRISBURG PA  MOSUNNY   34  20  56 NW23      30.25R WCI  22
BALTIMORE      MOSUNNY   34  17  50 NW15G25   30.30R WCI  24
ANNAPOLIS      SUNNY     36  18  48 NW17G24   30.30R
ANDREWS AFB    SUNNY     33  15  47 W20       30.30R WCI  21
PHILADELPHIA   MOSUNNY   35  17  47 W20       30.23R WCI  24
HENDERSON NC   SUNNY     31  12  45 N12       30.39R WCI  21
GREENSBORO     MOSUNNY   35  18  49 NE7       30.38R
ROCKY MOUNT    SUNNY     37  18  46 N13       30.40R
$$

VAZ100-091600-
MARINE

STATION/POSITION TIME  TEMP    WIND        PRES    WAVE   SWELL
                       AIR SEA DIR/SP/G            HT/PER HT/PER
                 (UTC) (F)     (DEG/KT/KT) (MB)    (FT/S) (FT/S)
BRANDYWINE LGT   1448   32     320/ 19/ 26   N/A
CAPE MAY NJ      1448   34 42  310/ 20/ 25 1024.1R
LEWES DE         1448   34 45  310/ 21/ 27 1024.8R
OCEAN-CITY-INLET 1442   33 45  330/ 16/ 22 1025.4R
WACHAPREAGUE VA  1448   37 42  300/  5/ 13 1026.4R
THOMAS POINT MD  1500   33 46  300/ 24/ 28   N/A
GOOSES REEF MD   1450   35     300/ 17/ 23 1027.0R
COVE POINT MD    1448   32     340/ 19/ 25 1026.9R
SOLOMONS ISLAND  1442   34 48  280/  9/ 15   N/A
BISHOPS HEAD MD  1448   33 38  300/ 20/ 24 1026.5R
PINEY POINT MD   1448          330/ 23/ 26   N/A
POTOMAC MD       1450   36     320/ 19/ 23 1026.2R
CAMBRIDGE MD     1448   34 44  300/ 13/ 20 1025.5R
LEWISETTA VA     1448   34 45  310/ 12/ 16 1026.7R
RAPPAHANNOCK LGT 1448          310/ 22/ 23 1027.3R
STINGRAY PT      1450   35     320/ 17/ 23 1027.7R
YORK RVR RNG VA  1448   34     340/ 21/ 25 1027.0R
YORKTOWN VA      1448   35 49  320/ 20/ 25 1027.3R
JAMESTOWN VA     1450   34     300/ 14/ 17   N/A
DOMINION TERM VA 1448   36     340/  7/ 15 1027.6R
KIPTOPEKE VA     1442      48  350/ 20/ 24   N/A
CHES BAY BRIDGE  1448   35 50  330/ 19/ 25 1027.3R
CAPE HENRY VA    1448   35     320/ 18/ 23   N/A
WILLOUBY STN VA  1448   35     330/ 14/ 17 1028.3R
S CRANEY ISL VA  1448   35     340/ 12/ 18 1027.3R
CAPE HENRY BUOY  1442      53                N/A     5/ 6
1ST LANDING BUOY 1450   36                 1027.6
CAPE CHARLES BUO 1456      53                N/A     4/ 5
OFFSHORE WE BUOY 1451      55                N/A     6/ 6
64NM E OF VA BCH 1450   40 58  340/ 19/ 25 1025.1R   7/ 7   2/11
DUCK PIER NC     1448   36 53  330/ 19/ 23 1026.3R
44100 DUCK FRF   1435      55                N/A     7/ 7   2/13
OREGON INLET NC  1442   38 53  310/ 15/ 19 1026.8R
HATTERAS NC      1442   40 55  340/ 16/ 20 1026.6R
DIAMOND SHLS NC  1450   43 75  350/ 19/ 25 1026.2R   5/ 8   3/ 8
CAPE LOOKOUT NC  1400   38     330/ 17/ 21 1027.1R
$$




USA.gov is the U.S. government's official web portal to all federal, state and local government web resources and services.